Newport News, VA

6:00 AM EST on January 24, 2018 (GMT -0500)
Newport News-Williamsburg International

Weather History for KPHF - December, 2012

Change the Weather History Date:

Saturday, December 8, 2012

  Actual Average Record
Temperature  
Mean Temperature 57 °F -  
Max Temperature 61 °F 57 °F 78 °F (1998)
Min Temperature 53 °F 39 °F 21 °F (2010)
Degree Days  
Heating Degree Days 8    
Growing Degree Days 7 (Base 50)    
Moisture  
Dew Point 51 °F    
Average Humidity 84    
Maximum Humidity 88    
Minimum Humidity 70    
Precipitation  
Precipitation 0.01 in - - ()
Sea Level Pressure  
Sea Level Pressure 29.97 in    
Wind  
Wind Speed 3 mph (WSW)    
Max Wind Speed 13 mph    
Max Gust Speed -    
Visibility 4 miles    
Events      
Averages and records for this station are not official NWS values.
T = Trace of Precipitation, MM = Missing Value Source: NWS Daily Summary

Daily Weather History Graph

Daily Weather History Graph

Search for Another Location

Airport or City:

Trip Planner

Search our weather history database for the weather conditions in past years. The results will help you decide how hot, cold, wet, or windy it might be!

Date:

Astronomy

Dec. 08, 2012 Rise Set
Actual Time 7:07 AM EST 4:48 PM EST
Civil Twilight 6:38 AM EST 5:17 PM EST
Nautical Twilight 6:06 AM EST 5:50 PM EST
Astronomical Twilight 5:34 AM EST 6:21 PM EST
Moon 1:35 AM EST (12/8) 1:12 PM EST (12/8)
Length of Visible Light 10h 39m
Length of Day
9h 41m
Waning Crescent, 28% of the Moon is Illuminated
Dec 8
Waning Crescent
Dec 13
New
Dec 20
First Quarter
Dec 28
Full
Jan 4
Last Quarter

Hourly Weather History & Observations

Time (EST) Temp. Dew Point Humidity Pressure Visibility Wind Dir Wind Speed Gust Speed Precip Events Conditions
12:46 AM 59.0 °F 55.4 °F 88% 29.96 in 2.0 mi Calm Calm - 0.00 in   Overcast
12:54 AM 59.0 °F 55.0 °F 87% 29.96 in 1.5 mi Calm Calm - 0.00 in   Overcast
1:26 AM 59.0 °F 55.4 °F 88% 29.96 in 1.2 mi Calm Calm - 0.01 in   Overcast
1:47 AM 55.4 °F 51.8 °F 88% 29.96 in 2.0 mi WNW 5.8 mph - 0.01 in   Overcast
1:54 AM 55.9 °F 52.0 °F 87% 29.96 in 2.0 mi NW 3.5 mph - 0.01 in   Overcast
2:20 AM 55.4 °F 51.8 °F 88% 29.96 in 3.0 mi Calm Calm - N/A   Overcast
2:27 AM 55.4 °F 51.8 °F 88% 29.96 in 2.0 mi WNW 3.5 mph - N/A   Overcast
2:37 AM 55.4 °F 51.8 °F 88% 29.96 in 1.8 mi Calm Calm - N/A   Overcast
2:52 AM 55.4 °F 51.8 °F 88% 29.96 in 2.0 mi Calm Calm - N/A   Overcast
2:54 AM 55.0 °F 51.1 °F 86% 29.96 in 2.5 mi West 3.5 mph - N/A   Overcast
3:08 AM 55.4 °F 51.8 °F 88% 29.96 in 3.0 mi Calm Calm - N/A   Overcast
3:54 AM 54.0 °F 50.0 °F 86% 29.95 in 2.5 mi West 5.8 mph - N/A   Overcast
4:01 AM 53.6 °F 50.0 °F 88% 29.94 in 4.0 mi Calm Calm - N/A   Overcast
4:54 AM 53.1 °F 48.9 °F 86% 29.95 in 3.0 mi West 3.5 mph - N/A   Overcast
5:30 AM 53.6 °F 48.2 °F 82% 29.95 in 2.5 mi Calm Calm - N/A   Overcast
5:49 AM 53.6 °F 48.2 °F 82% 29.95 in 1.0 mi West 3.5 mph - N/A   Overcast
5:54 AM 53.6 °F 48.2 °F 82% 29.95 in 0.8 mi West 4.6 mph - N/A   Overcast
6:04 AM 53.6 °F 48.2 °F 82% 29.96 in 1.0 mi WSW 3.5 mph - N/A   Overcast
6:11 AM 53.6 °F 48.2 °F 82% 29.96 in 0.8 mi WSW 4.6 mph - N/A   Overcast
6:19 AM 53.6 °F 48.2 °F 82% 29.96 in 1.0 mi WSW 3.5 mph - N/A   Overcast
6:54 AM 53.6 °F 48.2 °F 82% 29.97 in 1.8 mi WSW 5.8 mph - N/A   Overcast
7:16 AM 53.6 °F 48.2 °F 82% 29.97 in 2.5 mi SW 5.8 mph - N/A   Overcast
7:30 AM 53.6 °F 50.0 °F 88% 29.96 in 1.5 mi SW 4.6 mph - N/A   Overcast
7:54 AM 54.0 °F 50.0 °F 86% 29.97 in 0.8 mi SW 5.8 mph - N/A   Overcast
8:54 AM 55.0 °F 51.1 °F 86% 29.97 in 0.8 mi SW 5.8 mph - N/A   Overcast
9:26 AM 55.4 °F 51.8 °F 88% 29.98 in 1.0 mi WSW 8.1 mph - N/A   Overcast
9:54 AM 55.0 °F 51.1 °F 86% 29.98 in 1.5 mi WSW 8.1 mph - N/A   Overcast
10:10 AM 55.4 °F 51.8 °F 88% 29.98 in 2.0 mi SW 9.2 mph - N/A   Overcast
10:38 AM 55.4 °F 51.8 °F 88% 29.99 in 4.0 mi WSW 9.2 mph - N/A   Overcast
10:54 AM 55.0 °F 51.1 °F 86% 29.99 in 4.0 mi WSW 12.7 mph - N/A   Overcast
11:22 AM 55.4 °F 51.8 °F 88% 29.98 in 6.0 mi West 9.2 mph - N/A   Haze
11:54 AM 55.9 °F 51.1 °F 84% 29.96 in 7.0 mi WSW 8.1 mph - N/A   Overcast
12:54 PM 57.9 °F 51.1 °F 78% 29.96 in 8.0 mi WSW 6.9 mph - N/A   Overcast
1:27 PM 59.0 °F 51.8 °F 77% 29.94 in 9.0 mi WSW 8.1 mph - N/A   Scattered Clouds
1:54 PM 59.0 °F 51.1 °F 75% 29.94 in 9.0 mi WSW 6.9 mph - N/A   Clear
2:54 PM 61.0 °F 51.1 °F 70% 29.94 in 10.0 mi WSW 6.9 mph - N/A   Clear
3:54 PM 60.1 °F 51.1 °F 72% 29.96 in 10.0 mi SW 6.9 mph - N/A   Clear
4:54 PM 57.0 °F 50.0 °F 77% 29.96 in 10.0 mi WSW 4.6 mph - N/A   Clear
5:54 PM 55.9 °F 50.0 °F 80% 29.97 in 9.0 mi SSW 3.5 mph - N/A   Clear
6:54 PM 55.0 °F 51.1 °F 86% 29.99 in 7.0 mi SW 5.8 mph - N/A   Clear
7:54 PM 55.0 °F 50.0 °F 83% 30.00 in 8.0 mi SW 5.8 mph - N/A   Clear
8:54 PM 55.9 °F 51.1 °F 84% 30.01 in 9.0 mi WSW 5.8 mph - N/A   Clear
9:54 PM 55.9 °F 51.1 °F 84% 30.02 in 9.0 mi SW 8.1 mph - N/A   Clear
10:54 PM 54.0 °F 50.0 °F 86% 30.02 in 8.0 mi SW 6.9 mph - N/A   Clear
11:54 PM 54.0 °F 48.9 °F 83% 30.04 in 7.0 mi SW 4.6 mph - N/A   Clear